Regional Weather Roundup
Issued by NWS

Home | Current Version | Previous Version | Text Only | Print | Product List | Glossary Off
Versions: 1 2 3 4 5 6 7 8 9 10 11 12 13 14 15 16 17 18 19 20 21 22 23 24 25 26 27 28 29 30 31 32 33 34 35 36 37 38 39 40 41 42 43 44 45 46 47 48 49 50

000
ASUS43 KLOT 020200
RWRIL

ILLINOIS REGIONAL WEATHER ROUNDUP
NATIONAL WEATHER SERVICE CHICAGO/ROMEOVILLE IL
900 PM CDT SAT AUG 01 2015

NOTE: "FAIR" INDICATES FEW OR NO CLOUDS BELOW 12,000 FEET WITH NO
SIGNIFICANT WEATHER AND/OR OBSTRUCTIONS TO VISIBILITY.

* THESE STATIONS ARE NOT UNDER NWS QUALITY CONTROL. THEY ALSO MAY NOT
  REPORT WEATHER SUCH AS PRECIPITATION OR FOG.

ILZ001-002-007-009-015-016-024-020300-
NORTHWEST ILLINOIS

CITY           SKY/WX    TMP DP  RH WIND       PRES   REMARKS
MOLINE         MOCLDY    77  68  73 S3        29.91S
STERLING*      MOCLDY    75  66  73 CALM      29.89S
$$

ILZ003-004-008-010-011-017-018-020300-
NORTH CENTRAL ILLINOIS

CITY           SKY/WX    TMP DP  RH WIND       PRES   REMARKS
ROCKFORD       PTCLDY    74  65  73 S6        29.91S
$$

ILZ005-006-012>014-019>023-020300-
NORTHEAST ILLINOIS

CITY           SKY/WX    TMP DP  RH WIND       PRES   REMARKS
CHICAGO-OHARE  MOCLDY    79  62  56 W10       29.90R HX  80
CHICAGO-MIDWAY MOCLDY    81  61  50 SW8       29.90R HX  82
AURORA         MOCLDY    75  64  68 SW7       29.92R
WAUKEGAN       CLEAR     77  65  66 VRB3      29.88R
DUPAGE AIRPORT MOCLDY    76  64  66 SW9       29.91R
WHEELING       PTCLDY    80  61  52 SW6       29.90R HX  81
NORTHERLY ISL    N/A     81  59  47 SW7         N/A  HX  81
$$

LMZ740>746-020300-
SOUTHERN LAKE MICHIGAN

STATION/POSITION SKY/WX   TEMP    WIND        PRES    VSBY  WAVE
                          AIR SEA DIR/SP/G                  HT/PER
                          (F)     (DEG/KT/KT) (MB)    (MI)  (FT/S)
HARRISON CRIB              82     250/ 17/ 21   N/A
BURNHAM HARBOR             82     280/  7/ 17   N/A
CALUMET HARBOR             81     230/  5/  8   N/A
BURNS HARBOR               81     220/ 13/ 19 1012.9S
MICHIGAN CITY              80     200/ 12/ 14   N/A
MICHIGAN CITY 6N           78 75  250/ 12/ 14   N/A           1/ 3
ST. JOSEPH                 76 74  220/  6/  6   N/A           1/ 4
$$

ILZ025>027-034>036-040-047-049-050-058-095>099-020300-
WEST-CENTRAL ILLINOIS

CITY           SKY/WX    TMP DP  RH WIND       PRES   REMARKS
QUINCY         PTCLDY    79  71  76 SE6       29.94F HX  82
MACOMB*        MOCLDY    74  71  90 S6        29.96S
$$

ILZ028>032-037-038-041>044-048-051>054-059>061-020300-
CENTRAL ILLINOIS

CITY           SKY/WX    TMP DP  RH WIND       PRES   REMARKS
DECATUR        PTCLDY    75  62  64 SW6       29.97S
PEORIA         MOCLDY    79  64  60 W3        29.94F HX  81
SPRINGFIELD    PTCLDY    77  65  66 SW5       29.96S
TAYLORVILLE    NOT AVBL
$$

ILZ033-039-045-046-055>057-062-063-020300-
EAST-CENTRAL ILLINOIS

CITY           SKY/WX    TMP DP  RH WIND       PRES   REMARKS
CHAMPAIGN      PTCLDY    70  65  84 SW6       29.97S
DANVILLE*      CLEAR     67  65  96 CALM      29.94S
MATTOON        PTCLDY    74  63  68 SW3       29.97S
$$

ILZ079-100>102-020300-
SOUTHWEST ILLINOIS

CITY           SKY/WX    TMP DP  RH WIND       PRES   REMARKS
CAHOKIA*       CLOUDY    80  69  69 S5        29.96S HX  83
$$

ILZ064>066-069>071-074>076-080>082-084>086-088>090-092>094-020300-
SOUTH-CENTRAL ILLINOIS

CITY           SKY/WX    TMP DP  RH WIND       PRES   REMARKS
CARBONDALE     PTCLDY    76  71  85 CALM      29.97S
MT. VERNON     MOCLDY    72  63  73 CALM      29.99R
SALEM*         MOCLDY    73  68  87 CALM      29.98S
$$

ILZ067-068-072-073-078-083-087-091-020300-
SOUTHEAST ILLINOIS

CITY           SKY/WX    TMP DP  RH WIND       PRES   REMARKS
LAWRENCEVILLE  PTCLDY    72  65  78 SW3       29.98S
FLORA*         PTCLDY    71  66  87 CALM      29.98S
HARRISBURG*    MOCLDY    73  71  92 CALM      29.99S
ROBINSON*      PTCLDY    69  65  88 CALM      29.98S
CARMI*         PTCLDY    72  65  79 CALM      29.98R
$$

ABBREVIATIONS USED IN REMARKS
   TC - TEMPERATURE IN CELSIUS
  WCI - WIND CHILL INDEX
   HX - HEAT INDEX
  VSB - VISIBILITY
$$



USA.gov is the U.S. government's official web portal to all federal, state and local government web resources and services.